| time (UTC) | temp C | wind direction | speed KPH | gust KPH | rain 1hr cm | rain 24hr cm | rain mn cm | humidity % | barometer mb |
| 20260831230045 | 13 | 268 | 0.0 | 0.0 | 0.00 | 0.64 | 0.00 | 88 | 1020.4 |
| 20260831224542 | 13 | 268 | 0.0 | 0.0 | 0.00 | 0.64 | 0.64 | 87 | 1020.5 |
| 20260831223042 | 13 | 268 | 0.0 | 0.0 | 0.00 | 0.64 | 0.64 | 86 | 1020.4 |
| 20260831221640 | 14 | 268 | 0.0 | 0.0 | 0.00 | 0.64 | 0.64 | 86 | 1020.4 |
| 20260831220047 | 14 | 268 | 0.0 | 0.0 | 0.00 | 0.64 | 0.64 | 86 | 1020.4 |
| 20260831214546 | 14 | 268 | 0.0 | 0.0 | 0.00 | 0.64 | 0.64 | 86 | 1020.2 |
| 20260831213047 | 14 | 268 | 0.0 | 3.2 | 0.00 | 0.64 | 0.64 | 87 | 1020.1 |
| 20260831211645 | 14 | 268 | 0.0 | 1.6 | 0.00 | 0.64 | 0.64 | 87 | 1019.9 |
| 20260831210033 | 14 | 268 | 0.0 | 8.0 | 0.00 | 0.64 | 0.64 | 88 | 1019.7 |
| 20260831204534 | 14 | 274 | 0.0 | 0.0 | 0.00 | 0.64 | 0.64 | 88 | 1019.7 |
| 20260831203033 | 14 | 274 | 0.0 | 1.6 | 0.00 | 0.64 | 0.64 | 89 | 1019.6 |
| 20260831201629 | 14 | 274 | 0.0 | 6.4 | 0.00 | 0.64 | 0.64 | 92 | 1019.3 |
| 20260831200130 | 14 | 275 | 0.0 | 8.0 | 0.00 | 0.64 | 0.64 | 90 | 1019.2 |
| 20260831194555 | 14 | 275 | 0.0 | 8.0 | 0.00 | 0.64 | 0.64 | 90 | 1019.2 |
| 20260831193029 | 14 | 274 | 0.0 | 0.0 | 0.00 | 0.64 | 0.64 | 90 | 1019.2 |
| 20260831191627 | 14 | 274 | 0.0 | 0.0 | 0.00 | 0.64 | 0.64 | 89 | 1019.0 |
| 20260831190030 | 14 | 274 | 0.0 | 0.0 | 0.00 | 0.64 | 0.64 | 88 | 1018.8 |
| 20260831184522 | 15 | 274 | 0.0 | 0.0 | 0.03 | 0.64 | 0.64 | 88 | 1018.7 |
| 20260831183019 | 15 | 274 | 0.0 | 3.2 | 0.03 | 0.64 | 0.64 | 88 | 1018.5 |
| 20260831181616 | 15 | 274 | 0.0 | 9.7 | 0.05 | 0.64 | 0.64 | 89 | 1018.1 |
| 20260831180020 | 15 | 269 | 1.6 | 12.9 | 0.05 | 0.64 | 0.64 | 88 | 1018.0 |
| 20260831174531 | 15 | 278 | 1.6 | 14.5 | 0.03 | 0.61 | 0.61 | 87 | 1018.0 |
| 20260831173017 | 16 | 263 | 0.0 | 0.0 | 0.15 | 0.61 | 0.61 | 87 | 1017.8 |
| 20260831171616 | 16 | 263 | 0.0 | 0.0 | 0.13 | 0.61 | 0.61 | 85 | 1017.7 |
| 20260831170017 | 16 | 263 | 0.0 | 6.4 | 0.13 | 0.61 | 0.61 | 83 | 1017.6 |
| 20260831164516 | 17 | 267 | 0.0 | 11.3 | 0.13 | 0.61 | 0.61 | 79 | 1017.8 |
| 20260831163015 | 20 | 263 | 11.3 | 22.5 | 0.00 | 0.48 | 0.48 | 64 | 1017.7 |
| 20260831161613 | 20 | 275 | 4.8 | 19.3 | 0.00 | 0.48 | 0.48 | 60 | 1016.9 |
| 20260831160009 | 21 | 269 | 1.6 | 9.7 | 0.00 | 0.48 | 0.48 | 62 | 1016.8 |
| 20260831154515 | 21 | 274 | 0.0 | 11.3 | 0.00 | 0.48 | 0.48 | 63 | 1016.7 |
| 20260831153010 | 21 | 273 | 0.0 | 8.0 | 0.00 | 0.48 | 0.48 | 62 | 1016.6 |
| 20260831151610 | 20 | 257 | 0.0 | 11.3 | 0.00 | 0.48 | 0.48 | 64 | 1016.8 |
| 20260831150009 | 20 | 265 | 0.0 | 12.9 | 0.00 | 0.48 | 0.48 | 65 | 1016.5 |
| 20260831144509 | 21 | 273 | 3.2 | 16.1 | 0.00 | 0.48 | 0.48 | 55 | 1016.4 |
| 20260831143007 | 22 | 275 | 3.2 | 14.5 | 0.00 | 0.48 | 0.48 | 54 | 1016.2 |
| 20260831141612 | 22 | 269 | 1.6 | 11.3 | 0.00 | 0.48 | 0.48 | 56 | 1016.4 |
| 20260831140007 | 22 | 265 | 0.0 | 8.0 | 0.00 | 0.48 | 0.48 | 59 | 1016.4 |
| 20260831134505 | 22 | 273 | 0.0 | 14.5 | 0.00 | 0.48 | 0.48 | 56 | 1016.5 |
| 20260831133006 | 22 | 271 | 1.6 | 11.3 | 0.00 | 0.48 | 0.48 | 56 | 1016.6 |
| 20260831131607 | 22 | 271 | 4.8 | 19.3 | 0.00 | 0.48 | 0.48 | 54 | 1016.7 |
| 20260831130004 | 22 | 277 | 1.6 | 12.9 | 0.00 | 0.48 | 0.48 | 54 | 1016.7 |
| 20260831124503 | 22 | 282 | 1.6 | 12.9 | 0.00 | 0.48 | 0.48 | 55 | 1016.7 |
| 20260831123100 | 22 | 267 | 1.6 | 17.7 | 0.00 | 0.48 | 0.48 | 58 | 1016.8 |
| 20260831121557 | 21 | 277 | 3.2 | 17.7 | 0.00 | 0.48 | 0.48 | 61 | 1016.9 |
| 20260831120055 | 21 | 264 | 0.0 | 6.4 | 0.00 | 0.48 | 0.48 | 64 | 1016.9 |
| 20260831114557 | 19 | 266 | 0.0 | 3.2 | 0.00 | 0.48 | 0.48 | 67 | 1017.0 |
| 20260831113057 | 20 | 266 | 0.0 | 4.8 | 0.00 | 0.48 | 0.48 | 65 | 1017.0 |
| 20260831111557 | 20 | 267 | 0.0 | 4.8 | 0.00 | 0.48 | 0.48 | 64 | 1017.0 |
| 20260831110054 | 20 | 274 | 0.0 | 6.4 | 0.00 | 0.48 | 0.48 | 65 | 1017.0 |
| 20260831104552 | 20 | 248 | 0.0 | 12.9 | 0.00 | 0.48 | 0.48 | 65 | 1016.9 |
| 20260831103051 | 20 | 266 | 0.0 | 9.7 | 0.00 | 0.48 | 0.48 | 63 | 1017.0 |
| 20260831101650 | 20 | 271 | 1.6 | 9.7 | 0.00 | 0.48 | 0.48 | 64 | 1017.0 |
| 20260831100114 | 20 | 268 | 0.0 | 4.8 | 0.00 | 0.48 | 0.48 | 64 | 1017.1 |
| 20260831094549 | 20 | 281 | 3.2 | 11.3 | 0.00 | 0.48 | 0.48 | 66 | 1017.1 |
| 20260831093046 | 20 | 273 | 0.0 | 16.1 | 0.00 | 0.48 | 0.48 | 72 | 1016.9 |
| 20260831091550 | 19 | 271 | 0.0 | 17.7 | 0.00 | 0.48 | 0.48 | 77 | 1017.0 |
| 20260831090040 | 19 | 276 | 1.6 | 14.5 | 0.00 | 0.48 | 0.48 | 80 | 1017.0 |
| 20260831084542 | 18 | 261 | 1.6 | 11.3 | 0.00 | 0.48 | 0.48 | 82 | 1016.8 |
| 20260831083031 | 17 | 261 | 3.2 | 9.7 | 0.00 | 0.48 | 0.48 | 87 | 1016.6 |
| 20260831081528 | 17 | 273 | 1.6 | 9.7 | 0.00 | 0.48 | 0.48 | 93 | 1016.6 |
| 20260831080028 | 16 | 277 | 0.0 | 6.4 | 0.00 | 0.48 | 0.48 | 94 | 1016.6 |
| 20260831074525 | 16 | 273 | 1.6 | 8.0 | 0.00 | 0.48 | 0.48 | 94 | 1016.5 |
| 20260831073033 | 16 | 271 | 0.0 | 4.8 | 0.00 | 0.48 | 0.48 | 95 | 1016.5 |
| 20260831071520 | 16 | 272 | 0.0 | 9.7 | 0.00 | 0.48 | 0.48 | 95 | 1016.4 |
| 20260831070019 | 16 | 292 | 0.0 | 6.4 | 0.00 | 0.48 | 0.48 | 95 | 1016.3 |
| 20260831064522 | 16 | 275 | 0.0 | 8.0 | 0.00 | 0.48 | 0.48 | 95 | 1016.1 |
| 20260831063022 | 16 | 275 | 0.0 | 0.0 | 0.00 | 0.48 | 0.48 | 95 | 1016.0 |
| 20260831061513 | 16 | 273 | 0.0 | 8.0 | 0.00 | 0.48 | 0.48 | 95 | 1015.7 |
| 20260831060013 | 15 | 265 | 0.0 | 4.8 | 0.00 | 0.48 | 0.48 | 95 | 1015.7 |
| 20260831054512 | 15 | 269 | 0.0 | 11.3 | 0.00 | 0.48 | 0.48 | 95 | 1015.6 |
| 20260831053010 | 16 | 277 | 0.0 | 8.0 | 0.15 | 0.48 | 0.48 | 95 | 1015.5 |
| 20260831051508 | 16 | 271 | 0.0 | 4.8 | 0.15 | 0.48 | 0.48 | 95 | 1015.4 |
| 20260831050007 | 16 | 276 | 0.0 | 8.0 | 0.15 | 0.48 | 0.48 | 95 | 1015.4 |
| 20260831044507 | 16 | 274 | 0.0 | 0.0 | 0.15 | 0.48 | 0.48 | 95 | 1015.1 |
| 20260831043003 | 16 | 274 | 0.0 | 0.0 | 0.03 | 0.33 | 0.33 | 95 | 1015.0 |
| 20260831041504 | 16 | 274 | 0.0 | 3.2 | 0.00 | 0.33 | 0.33 | 95 | 1014.9 |
| 20260831040008 | 16 | 275 | 0.0 | 6.4 | 0.00 | 0.33 | 0.33 | 95 | 1014.8 |
| 20260831034502 | 16 | 271 | 0.0 | 4.8 | 0.00 | 0.33 | 0.33 | 95 | 1014.8 |
| 20260831033112 | 16 | 271 | 0.0 | 4.8 | 0.00 | 0.33 | 0.33 | 95 | 1014.8 |
| 20260831033001 | 16 | 271 | 0.0 | 4.8 | 0.00 | 0.33 | 0.33 | 95 | 1014.8 |
| 20260831031600 | 15 | 271 | 1.6 | 11.3 | 0.00 | 0.33 | 0.33 | 94 | 1014.6 |
| 20260831024600 | 16 | 277 | 0.0 | 1.6 | 0.00 | 0.33 | 0.33 | 94 | 1014.3 |
| 20260831023056 | 16 | 277 | 0.0 | 0.0 | 0.03 | 0.33 | 0.33 | 94 | 1014.0 |
| 20260831021555 | 16 | 277 | 0.0 | 3.2 | 0.10 | 0.33 | 0.33 | 94 | 1014.0 |
| 20260831020054 | 16 | 276 | 0.0 | 4.8 | 0.15 | 0.33 | 0.33 | 94 | 1014.2 |
| 20260831014601 | 16 | 279 | 0.0 | 8.0 | 0.33 | 0.33 | 0.33 | 94 | 1014.3 |
| 20260831013057 | 16 | 281 | 0.0 | 4.8 | 0.30 | 0.30 | 0.30 | 94 | 1014.2 |
| 20260831011553 | 16 | 279 | 0.0 | 1.6 | 0.25 | 0.25 | 0.25 | 94 | 1014.1 |
| 20260831010107 | 15 | 279 | 0.0 | 6.4 | 0.18 | 0.18 | 0.18 | 94 | 1014.2 |
| 20260831004548 | 13 | 277 | 3.2 | 17.7 | 0.00 | 0.00 | 0.00 | 92 | 1013.9 |
| 20260831003059 | 13 | 264 | 0.0 | 0.0 | 0.00 | 0.00 | 0.00 | 92 | 1012.8 |
| 20260831001545 | 13 | 264 | 0.0 | 0.0 | 0.00 | 0.00 | 0.00 | 91 | 1012.9 |
| 20260831000049 | 13 | 264 | 0.0 | 0.0 | 0.00 | 0.00 | 0.00 | 91 | 1013.1 |
| 20260830234552 | 13 | 264 | 0.0 | 0.0 | 0.00 | 0.00 | 0.00 | 90 | 1013.2 |
| 20260830233042 | 13 | 264 | 0.0 | 0.0 | 0.00 | 0.00 | 0.00 | 90 | 1013.4 |
| 20260830231545 | 13 | 264 | 0.0 | 0.0 | 0.00 | 0.00 | 0.00 | 89 | 1013.5 |